Greenville, ME

1:06 AM EST on December 10, 2019 (GMT -0500)
Greenville

Weather History for KGNR - August, 2019

Change the Weather History Date:

Thursday, August 8, 2019

  Actual Average (WUND) Record (WUND)
Temperature  
Mean Temperature 66 °F -  
Max Temperature 69 °F - - (-1)
Min Temperature 64 °F - - (-1)
Cooling Degree Days 2    
Growing Degree Days 16 (Base 50)    
Moisture  
Dew Point 65 °F    
Average Humidity 98    
Maximum Humidity 100    
Minimum Humidity 90    
Precipitation  
Precipitation 0.72 in - - ()
Sea Level Pressure  
Sea Level Pressure 29.66 in    
Wind  
Wind Speed 9 mph (SE)    
Max Wind Speed 12 mph    
Max Gust Speed 24 mph    
Averages and records for this station are not official NWS values.
T = Trace of Precipitation, MM = Missing Value Source: NWS Daily Summary

Daily Weather History Graph

Daily Weather History Graph

Search for Another Location

Airport or City:

Astronomy

Aug. 08, 2019 Rise Set
Actual Time 5:30 AM EDT 7:56 PM EDT
Civil Twilight 4:57 AM EDT 8:29 PM EDT
Nautical Twilight 4:15 AM EDT 9:11 PM EDT
Astronomical Twilight 3:28 AM EDT 9:58 PM EDT
Moon 2:29 PM EDT (8/8) No Moon Set
Length of Visible Light 15h 32m
Length of Day
14h 26m
First Quarter, 60% of the Moon is Illuminated
Aug 8
First Quarter
Aug 15
Full
Aug 23
Last Quarter
Aug 30
New
Sep 5
First Quarter

Hourly Weather History & Observations

Time (EDT) Temp. Dew Point Humidity Pressure Visibility Wind Dir Wind Speed Gust Speed Precip Events Conditions
12:56 AM 66.0 °F 64.9 °F 96% 29.79 in - SE 10.4 mph - N/A   Unknown
1:56 AM 64.9 °F 64.9 °F 100% 29.78 in - SE 8.1 mph 17.3 mph N/A   Unknown
2:56 AM 64.9 °F 64.9 °F 100% 29.76 in - SE 11.5 mph - 0.08 in   Unknown
3:56 AM 64.9 °F 64.0 °F 97% 29.75 in - SE 8.1 mph - N/A   Unknown
4:56 AM 64.9 °F 64.9 °F 100% 29.74 in - SE 8.1 mph - 0.02 in   Unknown
5:56 AM 64.9 °F 64.9 °F 100% 29.73 in - Variable 5.8 mph - 0.03 in   Unknown
6:56 AM 64.9 °F 64.9 °F 100% 29.72 in - SSE 5.8 mph - 0.04 in   Unknown
7:56 AM 64.9 °F 64.9 °F 100% 29.71 in - SSE 8.1 mph - 0.04 in   Unknown
8:56 AM 64.9 °F 64.0 °F 97% 29.69 in - SE 10.4 mph 18.4 mph 0.05 in   Unknown
9:56 AM 64.9 °F 64.9 °F 100% 29.68 in - SSE 8.1 mph 20.7 mph 0.14 in   Unknown
10:56 AM 64.9 °F 64.0 °F 97% 29.67 in - SSE 10.4 mph 21.9 mph 0.05 in   Unknown
11:56 AM 64.9 °F 64.0 °F 97% 29.65 in - SE 11.5 mph 24.2 mph 0.09 in   Unknown
12:56 PM 64.9 °F 64.9 °F 100% 29.64 in - SSE 9.2 mph 17.3 mph N/A   Unknown
1:56 PM 66.0 °F 66.0 °F 100% 29.63 in - Variable 6.9 mph - N/A   Unknown
2:56 PM 69.1 °F 66.0 °F 90% 29.60 in - SSE 10.4 mph 16.1 mph N/A   Unknown
3:56 PM 66.9 °F 66.0 °F 97% 29.60 in - SE 9.2 mph - 0.01 in   Unknown
4:56 PM 66.0 °F 64.9 °F 96% 29.59 in - SE 10.4 mph - 0.01 in   Unknown
5:56 PM 66.0 °F 64.9 °F 96% 29.60 in - SE 8.1 mph - 0.16 in   Unknown
6:56 PM 66.0 °F 64.9 °F 96% 29.61 in - SE 9.2 mph - N/A   Unknown
7:56 PM 64.9 °F 64.9 °F 100% 29.61 in - SSE 5.8 mph - N/A   Unknown
8:56 PM 64.9 °F 64.0 °F 97% 29.61 in - SE 6.9 mph - N/A   Unknown
9:56 PM 64.9 °F 64.9 °F 100% 29.61 in - SE 6.9 mph - N/A   Unknown
10:56 PM 64.9 °F 64.0 °F 97% 29.58 in - SSE 4.6 mph - N/A   Unknown
11:56 PM 64.9 °F 64.0 °F 97% 29.58 in - SSE 5.8 mph - N/A   Unknown